Location: Limerick
(52.6650°N, 8.6230°W)
Time: 06:15:01
(UTC+00:00)

ISS - Pass Details

Date: 04 December 2019
Orbit: 411 x 421 km, 51.6° (Epoch: 15 December)

Event Time Altitude Azimuth Distance (km) Brightness Sun altitude
Rises 17:20:41 0° 267° (W) 2,355 1.5 -8.4°
Reaches altitude 10° 17:22:46 10° 266° (W) 1,494 0.3 -8.7°
Maximum altitude 17:26:07 76° 180° (S) 435 -3.6 -9.2°
Enters shadow 17:29:21 11° 95° (E) 1,452 -1.6 -9.6°
